User: anonymous   Login
Location: Angwan Shehu
(11.2514°N, 7.4613°E)
Time: 21:40:52
(UTC+00:00)
Language:

Cosmos 2034 Rocket - Orbit

View from above orbital plane
View from above orbital plane
View from above satellite
View from above satellite

Ground track
Ground track

The orbit data is extracted from the following two-line orbital elements,

1 20150U 89059B   20020.60234258 +.00000007 +00000-0 -85720-5 0  9998
2 20150 082.9410 111.2653 0029765 154.6972 320.1021 13.75648869530437
Epoch (UTC): 20 January 2020 14:27:22
Eccentricity: 0.0029765
inclination: 82.9410°
perigee height: 957 km
apogee height: 1001 km
right ascension of ascending node: 111.2653°
argument of perigee: 154.6972°
revolutions per day: 13.75648869
mean anomaly at epoch: 320.1021°
orbit number at epoch: 53043

The dashed part of the orbit path shows where the satellite is in the earth's shadow,  

DLR